• In Hungary
  • List of Countries
  • For 7 days
  • Water Temperature
  • Satellite Maps
  • Weather Map
  • News
  • Weather Widgets
  • user-avatar
    Login

    Hourly Weather Kielmina

    Today, 16 July, Monday

    Time Temperature Precipitation Wind Pressure Humidity
    00:00 +17°C° 0 mm 2 mps 743 mmHg 89%
    01:00 +17°C° 0 mm 2 mps 743 mmHg 90%
    02:00 +16°C° 0.1 mm 3 mps 742 mmHg 91%
    03:00 +16°C° 0.1 mm 3 mps 742 mmHg 92%
    04:00 +16°C° 0.1 mm 3 mps 742 mmHg 93%
    05:00 +17°C° 0.1 mm 3 mps 742 mmHg 90%
    06:00 +18°C° 0.1 mm 4 mps 742 mmHg 86%
    07:00 +19°C° 0 mm 4 mps 742 mmHg 81%
    08:00 +21°C° 0.3 mm 4 mps 742 mmHg 76%
    09:00 +22°C° 0.3 mm 5 mps 741 mmHg 72%
    10:00 +23°C° 0.3 mm 5 mps 741 mmHg 68%
    11:00 +25°C° 0.7 mm 5 mps 741 mmHg 69%
    12:00 +25°C° 0.7 mm 5 mps 741 mmHg 69%
    13:00 +25°C° 0.7 mm 5 mps 740 mmHg 69%
    14:00 +25°C° 0.2 mm 5 mps 740 mmHg 67%
    15:00 +25°C° 0.2 mm 5 mps 740 mmHg 66%
    16:00 +26°C° 0.2 mm 5 mps 740 mmHg 65%
    17:00 +23°C° 0.5 mm 4 mps 740 mmHg 72%
    18:00 +22°C° 0.5 mm 4 mps 739 mmHg 78%
    19:00 +21°C° 0.5 mm 3 mps 739 mmHg 85%
    20:00 +20°C° 0.1 mm 3 mps 739 mmHg 88%
    21:00 +19°C° 0.1 mm 3 mps 739 mmHg 91%
    22:00 +18°C° 0.1 mm 3 mps 739 mmHg 94%
    23:00 +18°C° 0.3 mm 3 mps 739 mmHg 95%

    Tomorrow, 17 July, Tuesday

    Time Temperature Precipitation Wind Pressure Humidity
    00:00 +18°C° 0.3 mm 3 mps 739 mmHg 96%
    01:00 +18°C° 0.3 mm 3 mps 738 mmHg 97%
    02:00 +18°C° 1.6 mm 3 mps 738 mmHg 97%
    03:00 +18°C° 1.6 mm 3 mps 738 mmHg 97%
    04:00 +18°C° 1.6 mm 3 mps 738 mmHg 97%
    05:00 +18°C° 1.6 mm 3 mps 738 mmHg 96%
    06:00 +18°C° 1.6 mm 4 mps 737 mmHg 96%
    07:00 +18°C° 1.6 mm 4 mps 737 mmHg 95%
    08:00 +19°C° 0.4 mm 4 mps 737 mmHg 93%
    09:00 +20°C° 0.4 mm 3 mps 737 mmHg 91%
    10:00 +20°C° 0.4 mm 3 mps 737 mmHg 89%
    11:00 +21°C° 0.9 mm 3 mps 737 mmHg 85%
    12:00 +22°C° 0.9 mm 4 mps 737 mmHg 82%
    13:00 +23°C° 0.9 mm 4 mps 737 mmHg 79%
    14:00 +23°C° 1 mm 4 mps 737 mmHg 80%
    15:00 +23°C° 1 mm 4 mps 737 mmHg 80%
    16:00 +23°C° 1 mm 4 mps 737 mmHg 81%
    17:00 +22°C° 0.8 mm 4 mps 737 mmHg 84%
    18:00 +21°C° 0.8 mm 4 mps 737 mmHg 86%
    19:00 +21°C° 0.8 mm 4 mps 737 mmHg 89%
    20:00 +20°C° 0.2 mm 4 mps 737 mmHg 91%
    21:00 +20°C° 0.2 mm 4 mps 737 mmHg 93%
    22:00 +19°C° 0.2 mm 4 mps 737 mmHg 95%
    23:00 +19°C° 0.1 mm 4 mps 737 mmHg 96%

    Day after tomorrow, 18 July, Wednesday

    Time Temperature Precipitation Wind Pressure Humidity
    00:00 +19°C° 0.1 mm 4 mps 737 mmHg 96%
    01:00 +19°C° 0.1 mm 4 mps 737 mmHg 96%
    02:00 +19°C° 0.8 mm 4 mps 737 mmHg 96%
    03:00 +19°C° 0.8 mm 5 mps 737 mmHg 96%
    04:00 +19°C° 0.8 mm 5 mps 737 mmHg 96%
    05:00 +19°C° 1 mm 5 mps 737 mmHg 95%
    06:00 +19°C° 1 mm 5 mps 737 mmHg 95%
    07:00 +19°C° 1 mm 5 mps 737 mmHg 95%
    08:00 +20°C° 0.3 mm 5 mps 737 mmHg 93%
    09:00 +20°C° 0.3 mm 5 mps 737 mmHg 91%
    10:00 +21°C° 0.3 mm 5 mps 737 mmHg 89%
    11:00 +22°C° 0.2 mm 5 mps 737 mmHg 87%
    12:00 +22°C° 0.2 mm 5 mps 737 mmHg 85%
    13:00 +23°C° 0.2 mm 5 mps 738 mmHg 83%
    14:00 +23°C° 0.6 mm 5 mps 738 mmHg 84%
    15:00 +23°C° 0.6 mm 6 mps 738 mmHg 85%
    16:00 +23°C° 0.6 mm 6 mps 738 mmHg 87%
    17:00 +22°C° 1.6 mm 6 mps 738 mmHg 88%
    18:00 +22°C° 1.6 mm 6 mps 738 mmHg 90%
    19:00 +21°C° 1.6 mm 6 mps 738 mmHg 92%
    20:00 +21°C° 1.5 mm 5 mps 738 mmHg 92%
    21:00 +21°C° 1.5 mm 5 mps 739 mmHg 93%
    22:00 +20°C° 1.5 mm 5 mps 739 mmHg 94%
    23:00 +20°C° 1.2 mm 5 mps 739 mmHg 95%

    19 July, Thursday

    Time Temperature Precipitation Wind Pressure Humidity
    00:00 +20°C° 1.2 mm 5 mps 739 mmHg 96%
    01:00 +20°C° 1.2 mm 5 mps 739 mmHg 96%
    02:00 +20°C° 0.9 mm 5 mps 739 mmHg 96%
    03:00 +20°C° 0.9 mm 5 mps 739 mmHg 96%
    04:00 +19°C° 0.9 mm 5 mps 739 mmHg 96%
    05:00 +20°C° 0.4 mm 5 mps 739 mmHg 95%
    06:00 +20°C° 0.4 mm 5 mps 739 mmHg 94%
    07:00 +20°C° 0.4 mm 5 mps 740 mmHg 94%
    08:00 +21°C° 0.2 mm 5 mps 740 mmHg 91%
    09:00 +21°C° 0.2 mm 5 mps 740 mmHg 89%
    10:00 +22°C° 0.2 mm 5 mps 740 mmHg 86%
    11:00 +23°C° 0.1 mm 5 mps 740 mmHg 83%
    12:00 +23°C° 0.1 mm 6 mps 740 mmHg 80%
    13:00 +24°C° 0.1 mm 6 mps 740 mmHg 77%
    14:00 +24°C° 0.1 mm 6 mps 740 mmHg 76%
    15:00 +24°C° 0.1 mm 6 mps 740 mmHg 75%
    16:00 +24°C° 0.1 mm 6 mps 740 mmHg 75%
    17:00 +23°C° 0.1 mm 6 mps 741 mmHg 78%
    18:00 +22°C° 0.1 mm 6 mps 741 mmHg 81%
    19:00 +22°C° 0.1 mm 5 mps 741 mmHg 84%
    20:00 +21°C° 0 mm 5 mps 741 mmHg 87%
    21:00 +20°C° 0 mm 5 mps 741 mmHg 90%
    22:00 +19°C° 0 mm 5 mps 741 mmHg 93%
    23:00 +19°C° 0 mm 5 mps 741 mmHg 94%

    20 July, Friday

    Time Temperature Precipitation Wind Pressure Humidity
    00:00 +18°C° 0 mm 4 mps 741 mmHg 94%
    01:00 +18°C° 0 mm 4 mps 741 mmHg 95%
    02:00 +18°C° 0 mm 4 mps 741 mmHg 94%
    03:00 +18°C° 0 mm 4 mps 741 mmHg 93%
    04:00 +18°C° 0 mm 4 mps 741 mmHg 93%
    05:00 +18°C° 0.1 mm 4 mps 742 mmHg 92%
    06:00 +18°C° 0.1 mm 4 mps 742 mmHg 92%
    07:00 +18°C° 0.1 mm 4 mps 742 mmHg 91%
    08:00 +18°C° 0.2 mm 4 mps 742 mmHg 90%
    09:00 +19°C° 0.2 mm 4 mps 742 mmHg 88%
    10:00 +19°C° 0.2 mm 4 mps 742 mmHg 87%
    11:00 +20°C° 0.1 mm 4 mps 741 mmHg 83%
    12:00 +22°C° 0.1 mm 4 mps 741 mmHg 79%
    13:00 +23°C° 0.1 mm 4 mps 741 mmHg 75%
    14:00 +23°C° 0.1 mm 4 mps 741 mmHg 73%
    15:00 +23°C° 0.1 mm 4 mps 741 mmHg 72%
    16:00 +23°C° 0.1 mm 4 mps 741 mmHg 71%
    17:00 +22°C° 0 mm 4 mps 741 mmHg 75%
    18:00 +22°C° 0 mm 3 mps 741 mmHg 79%
    19:00 +21°C° 0 mm 2 mps 741 mmHg 83%
    20:00 +20°C° 0 mm 2 mps 741 mmHg 85%
    21:00 +19°C° 0 mm 2 mps 741 mmHg 87%
    22:00 +18°C° 0 mm 2 mps 741 mmHg 90%
    23:00 +18°C° 0 mm 2 mps 741 mmHg 90%

    21 July, Saturday

    Time Temperature Precipitation Wind Pressure Humidity
    00:00 +17°C° 0 mm 2 mps 741 mmHg 91%
    01:00 +17°C° 0 mm 2 mps 741 mmHg 91%
    02:00 +17°C° 0 mm 2 mps 741 mmHg 91%
    03:00 +16°C° 0 mm 2 mps 741 mmHg 90%
    04:00 +16°C° 0 mm 2 mps 741 mmHg 89%
    05:00 +17°C° 0 mm 2 mps 741 mmHg 84%
    06:00 +18°C° 0 mm 2 mps 741 mmHg 79%
    07:00 +19°C° 0 mm 2 mps 741 mmHg 75%
    08:00 +20°C° 0 mm 2 mps 741 mmHg 67%
    09:00 +21°C° 0 mm 3 mps 741 mmHg 60%
    10:00 +22°C° 0 mm 3 mps 741 mmHg 53%
    11:00 +24°C° 0 mm 3 mps 741 mmHg 50%
    12:00 +25°C° 0 mm 3 mps 741 mmHg 48%
    13:00 +25°C° 0 mm 4 mps 740 mmHg 46%
    14:00 +25°C° 0 mm 3 mps 740 mmHg 47%
    15:00 +25°C° 0 mm 3 mps 740 mmHg 48%
    16:00 +25°C° 0 mm 3 mps 740 mmHg 49%
    17:00 +24°C° 0 mm 3 mps 740 mmHg 54%
    18:00 +23°C° 0 mm 2 mps 740 mmHg 59%
    19:00 +21°C° 0 mm 2 mps 740 mmHg 64%
    20:00 +20°C° 0 mm 2 mps 740 mmHg 66%
    21:00 +19°C° 0 mm 2 mps 740 mmHg 67%
    22:00 +18°C° 0 mm 2 mps 741 mmHg 68%
    23:00 +17°C° 0 mm 2 mps 741 mmHg 72%
    Show more